Home > Weather > Bukavu > Past weeks

Flag for Dem. Rep. Congo Weather for the Past 2 Weeks in Bukavu, Dem. Rep. Congo

Now
66 °F

Light rain. Passing clouds.


Feels Like: 66 °F
Forecast: 56 / 74 °F
Wind: 8 mph from Northeast

Location: Kigali Airport

Current Time: Feb 8, 2016 at 9:39:55 PM

Latest Report: Feb 8, 2016 at 9:00 PM


Visibility: N/A

Pressure: 30.18 "Hg (24.71 "Hg at 1710m altitude)

Humidity: 88%

Dew point: 63 °F

Location of BukavuLocation

Historic Weather in Bukavu — Graph

°F

Bukavu Temperature Yesterday

Maximum temperature yesterday: 82 °F (at 1:30 PM)
Minimum temperature yesterday: 64 °F (at 5:30 AM)
Average temperature yesterday: 72 °F

High & Low Weather Summary for the Past Weeks

 TemperatureHumidityPressure
High90 °F (Feb 4, 3:30 PM)100% (Jan 24, 9:00 PM)30.24 "Hg (Jan 24, 9:00 PM)
Low45 °F (Feb 2, 7:30 AM)29% (Feb 5, 1:00 PM)29.98 "Hg (Feb 5, 4:00 PM)
Average73 °F74%30.13 "Hg
* Reported Jan 24 8:00 PM — Feb 8 8:30 PM, Bukavu, Weather by CustomWeather, © 2016

Note: Actual official high and low records may vary slightly from our data, if they occured in-between our weather recording intervals... More about our weather records

Advertising

Bukavu Weather History for the Previous 24 Hours

 ConditionsComfort  
Time TempWeatherWind HumidityBarometerVisibility
8:30 PM
Mon, Feb 8
68 °FLight rain. Passing clouds.7 mph78%30.15 "HgN/A
8:00 PM68 °FPassing clouds.8 mph78%30.15 "HgN/A
7:00 PM70 °FLight rain. Passing clouds.5 mph78%30.12 "HgN/A
6:30 PM68 °FPassing clouds.3 mph83%30.12 "HgN/A
6:00 PM68 °FPartly sunny.7 mph83%30.09 "HgN/A
5:30 PM72 °FPartly sunny.13 mph73%30.09 "HgN/A
5:00 PM73 °FLight rain. Partly sunny.9 mph65%30.07 "HgN/A
4:30 PM72 °FLight rain. Partly sunny.9 mph78%30.07 "Hg5 mi
4:00 PM77 °FPartly sunny.12 mph57%30.07 "HgN/A
3:30 PM81 °FPartly sunny.6 mph48%30.07 "HgN/A
2:30 PM81 °FScattered clouds.6 mph54%30.07 "HgN/A
2:00 PM81 °FScattered clouds.7 mph54%30.09 "HgN/A
1:30 PM81 °FScattered clouds.7 mph54%30.12 "HgN/A
1:00 PM79 °FScattered clouds.5 mph61%30.15 "HgN/A
12:30 PM79 °FBroken clouds.No wind61%30.15 "HgN/A
12:00 PM79 °FBroken clouds.No wind58%30.15 "HgN/A
11:30 AM77 °FBroken clouds.No wind61%30.18 "HgN/A
11:00 AM75 °FBroken clouds.3 mph69%30.18 "HgN/A
10:30 AM64 °FBroken clouds.3 mph94%30.15 "HgN/A
10:00 AM73 °FBroken clouds.No wind69%30.18 "HgN/A
9:30 AM72 °FMild.No wind83%30.21 "HgN/A
9:00 AM68 °FMild.No wind88%30.21 "HgN/A
8:30 AM66 °FMild.No wind94%30.21 "HgN/A
8:00 AM66 °FMild.No wind94%30.21 "HgN/A
7:30 AM64 °FFog.No wind94%30.15 "Hg0 mi
7:00 AM64 °FFog.No wind94%30.15 "Hg2 mi
5:30 AM64 °FFog.No wind100%30.12 "Hg3 mi
5:00 AM64 °FPassing clouds.No wind100%30.12 "Hg4 mi
4:00 AM64 °FPassing clouds.2 mph94%30.12 "HgN/A
3:30 AM66 °FPassing clouds.No wind88%30.12 "HgN/A
3:00 AM64 °FPassing clouds.No wind94%30.12 "Hg6 mi
2:30 AM64 °FPassing clouds.3 mph94%30.12 "HgN/A
2:00 AM64 °FPassing clouds.5 mph94%30.12 "HgN/A
1:00 AM66 °FPassing clouds.5 mph94%30.15 "HgN/A
12:30 AM64 °FPassing clouds.3 mph94%30.18 "HgN/A
12:00 AM64 °FPassing clouds.3 mph94%30.18 "Hg5 mi
11:30 PM
Sun, Feb 7
66 °FPassing clouds.3 mph88%30.18 "HgN/A
11:00 PM66 °FPassing clouds.2 mph88%30.18 "HgN/A
10:30 PM66 °FPassing clouds.3 mph88%30.18 "HgN/A
10:00 PM66 °FPassing clouds.5 mph88%30.18 "HgN/A
9:30 PM66 °FPartly cloudy.8 mph88%30.15 "HgN/A
9:00 PM66 °FPassing clouds.9 mph94%30.15 "HgN/A
Weather by CustomWeather, © 2016

See weather overviewHow to use our weather pages